TimeEST,TemperatureF,Dew PointF,Humidity,Sea Level PressureIn,VisibilityMPH,Wind Direction,Wind SpeedMPH,Gust SpeedMPH,PrecipitationIn,Events,Conditions,WindDirDegrees,DateUTC
12:04 AM,33.8,32.0,93,30.56,0.5,Calm,Calm,-,N/A,Fog,Fog,0,2012-11-18 05:04:00
12:19 AM,33.8,30.2,87,30.56,0.2,Calm,Calm,-,N/A,Fog,Fog,0,2012-11-18 05:19:00
12:53 AM,32.0,32.0,100,30.57,0.2,Calm,Calm,-,N/A,Fog,Fog,0,2012-11-18 05:53:00
12:57 AM,33.8,28.4,81,30.55,0.5,Calm,Calm,-,N/A,Fog,Fog,0,2012-11-18 05:57:00
1:06 AM,32.0,32.0,100,30.55,0.2,Calm,Calm,-,N/A,Fog,Fog,0,2012-11-18 06:06:00
1:53 AM,32.0,32.0,100,30.56,0.2,Calm,Calm,-,N/A,Fog,Fog,0,2012-11-18 06:53:00
2:53 AM,36.0,32.0,86,30.56,0.2,Calm,Calm,-,N/A,Fog,Fog,0,2012-11-18 07:53:00
3:53 AM,37.0,32.0,82,30.54,0.2,NE,3.5,-,N/A,,Haze,50,2012-11-18 08:53:00
4:53 AM,39.0,32.0,76,30.55,0.2,East,3.5,-,N/A,,Haze,80,2012-11-18 09:53:00
5:53 AM,41.0,32.0,70,30.56,0.2,Calm,Calm,-,N/A,,Haze,0,2012-11-18 10:53:00
6:53 AM,39.9,32.0,73,30.56,0.2,ENE,3.5,-,N/A,,Haze,70,2012-11-18 11:53:00
7:53 AM,41.0,30.9,67,30.56,0.2,ENE,3.5,-,N/A,,Haze,60,2012-11-18 12:53:00
8:53 AM,42.1,28.0,58,30.56,0.2,East,4.6,-,N/A,,Haze,100,2012-11-18 13:53:00
9:46 AM,42.8,28.4,57,30.53,0.8,NE,3.5,-,N/A,,Haze,50,2012-11-18 14:46:00
9:53 AM,44.1,26.1,49,30.55,1.2,NE,4.6,-,N/A,,Haze,50,2012-11-18 14:53:00
10:06 AM,44.6,24.8,46,30.53,2.5,East,3.5,-,N/A,,Haze,80,2012-11-18 15:06:00
10:12 AM,44.6,28.4,53,30.53,3.0,East,4.6,-,N/A,,Haze,80,2012-11-18 15:12:00
10:45 AM,44.6,28.4,53,30.53,4.0,Variable,4.6,-,N/A,,Haze,0,2012-11-18 15:45:00
10:53 AM,46.9,28.0,48,30.55,5.0,ENE,4.6,-,N/A,,Haze,60,2012-11-18 15:53:00
11:03 AM,46.4,26.6,46,30.53,5.0,East,4.6,-,N/A,,Haze,80,2012-11-18 16:03:00
11:53 AM,50.0,27.0,41,30.53,10.0,East,5.8,-,N/A,,Clear,80,2012-11-18 16:53:00
12:53 PM,50.0,28.9,44,30.50,10.0,East,4.6,-,N/A,,Clear,100,2012-11-18 17:53:00
1:53 PM,52.0,28.0,40,30.49,10.0,SE,6.9,-,N/A,,Clear,130,2012-11-18 18:53:00
2:53 PM,51.1,28.0,41,30.47,10.0,East,6.9,-,N/A,,Clear,90,2012-11-18 19:53:00
3:53 PM,50.0,28.0,43,30.46,10.0,East,9.2,-,N/A,,Clear,90,2012-11-18 20:53:00
4:53 PM,46.9,28.9,50,30.47,10.0,East,4.6,-,N/A,,Clear,90,2012-11-18 21:53:00
5:53 PM,44.1,30.0,58,30.48,10.0,ESE,5.8,-,N/A,,Clear,110,2012-11-18 22:53:00
6:53 PM,43.0,30.0,60,30.48,10.0,SE,3.5,-,N/A,,Clear,130,2012-11-18 23:53:00
7:53 PM,39.9,30.0,68,30.48,10.0,Calm,Calm,-,N/A,,Clear,0,2012-11-19 00:53:00
8:53 PM,37.0,30.9,79,30.47,10.0,Calm,Calm,-,N/A,,Clear,0,2012-11-19 01:53:00
9:53 PM,36.0,30.9,82,30.47,9.0,Calm,Calm,-,N/A,,Clear,0,2012-11-19 02:53:00
10:53 PM,33.1,30.9,92,30.46,7.0,Calm,Calm,-,N/A,,Clear,0,2012-11-19 03:53:00
11:53 PM,34.0,32.0,92,30.45,6.0,Calm,Calm,-,N/A,,Clear,0,2012-11-19 04:53:00